Location: Fuglau
(48.6333°N, 15.5500°E)
Time: 19:55:12
(UTC+00:00)

STARLINK-26 - Pass Details

Date: 27 February 2020
Orbit: 434 x 437 km, 53.0° (Epoch: 30 March)

Event Time Altitude Azimuth Distance (km) Brightness Sun altitude
Rises 17:31:18 0° 290° (WNW) 2,416 8.3 -9.7°
Reaches altitude 10° 17:33:28 10° 297° (WNW) 1,547 7.0 -10.0°
Maximum altitude 17:36:50 46° 12° (NNE) 601 3.7 -10.6°
Enters shadow 17:39:15 17° 81° (E) 1,186 4.7 -11.0°
